Regional Weather Roundup
Issued by NWS

Home | Current Version | Previous Version | Graphics & Text | Print | Product List | Glossary On
Versions: 1 2 3 4 5 6 7 8 9 10 11 12 13 14 15 16 17 18 19 20 21 22 23 24 25 26 27 28 29 30 31 32 33 34 35 36 37 38 39 40 41 42 43 44 45 46 47 48 49 50
000
ASUS43 KOAX 210102
RWRNE

WEATHER ROUNDUP FOR NEBRASKA
NATIONAL WEATHER SERVICE OMAHA NE
800 PM CDT MON APR 20 2015

NOTES: SATELLITE DATA IS BEING USED TO AUGMENT CLOUD COVER ABOVE
       12000 FEET.
       "FAIR" INDICATES FEW OR NO CLOUDS BELOW 12,000 FEET WITH NO
       SIGNIFICANT WEATHER AND/OR OBSTRUCTIONS TO VISIBILITY.

  * THESE STATIONS DO NOT REPORT WEATHER SUCH AS RAIN...SNOW OR FOG.

NEZ001>004-019>022-054>056-210200-
NEBRASKA PANHANDLE

CITY           SKY/WX    TMP DP  RH WIND       PRES   REMARKS
SCOTTSBLUFF    PTCLDY    52  25  35 N10       29.85S
ALLIANCE       CLEAR     51  22  31 NW15      29.84S
CHADRON        CLEAR     53  22  29 N13       29.82F
SIDNEY         CLEAR     50  25  37 N13       29.88R
$$

NEZ057>060-069>072-079>082-210200-
SOUTHWEST NEBRASKA

CITY           SKY/WX    TMP DP  RH WIND       PRES   REMARKS
NORTH PLATTE   PTCLDY    51  24  34 NW12      29.84S
IMPERIAL       CLEAR     54  24  31 NW10      29.86F
MCCOOK         PTCLDY    55  26  32 NW8       29.85S
$$

NEZ005>010-023>029-035>040-094-210200-
NORTH CENTRAL NEBRASKA

CITY           SKY/WX    TMP DP  RH WIND       PRES   REMARKS
VALENTINE      CLOUDY    50  21  32 NW15      29.82S
AINSWORTH      MOCLDY    49  21  32 NW10      29.82S
BROKEN BOW     PTCLDY    52  22  30 NW13      29.82F
ORD            PTCLDY    49  24  37 NW13      29.81S
$$

NEZ041-046>049-061>064-073>077-083>087-210200-
SOUTH CENTRAL NEBRASKA

CITY           SKY/WX    TMP DP  RH WIND       PRES   REMARKS
GRAND ISLAND   PTCLDY    52  25  35 NW14      29.83R
HASTINGS       PTCLDY    50  31  48 NW8       29.83S
KEARNEY *      PTCLDY    52  27  37 NW8       29.84S
YORK           PTCLDY    52  27  37 NW9       29.81S
$$

NEZ011>018-030>034-042>045-210200-
NORTHEAST NEBRASKA

CITY           SKY/WX    TMP DP  RH WIND       PRES   REMARKS
NORFOLK        CLEAR     51  15  23 NW14      29.76S
COLUMBUS *     PTCLDY    52  19  28 NW16      29.80S
TEKAMAH        CLEAR     52  18  26 NW14      29.75R
$$

NEZ050>053-065>068-078-088>093-210200-
SOUTHEAST NEBRASKA

CITY           SKY/WX    TMP DP  RH WIND       PRES   REMARKS
LINCOLN        MOCLDY    54  22  28 NW10      29.81R
OMAHA EPPLEY   PTCLDY    55  18  23 NW22G28   29.76R
FALLS CITY     MOCLDY    53  26  35 W12       29.80S
NEBRASKA CITY  PTCLDY    52  15  23 NW9       29.79S
PLATTSMOUTH    PTCLDY    53  16  23 W14G20    29.77S
$$

NEZ044-045-051>053-067-210200-
OMAHA AREA

CITY           SKY/WX    TMP DP  RH WIND       PRES   REMARKS
OMAHA EPPLEY   PTCLDY    55  18  23 NW22G28   29.76R
OFFUTT AFB     PTCLDY    54  21  27 NW14      29.76R
PLATTSMOUTH    PTCLDY    53  16  23 W14G20    29.77S
WAHOO          FAIR      53  19  25 NW12G21   29.78R
$$


USA.gov is the U.S. government's official web portal to all federal, state and local government web resources and services.